EW7069 Weather Reports


Display with metric or nautical units.
time (UTC)temp
F
wind
direction
speed
MPH
gust
MPH
rain 1hr
in
rain 24hr
in
rain mn
in
humidity
%
barometer
mb
20260507043003 42 0 0.0 0.0 0.00 0.00 0.00 60 999.0
20260507041002 42 0 0.0 0.0 0.00 0.00 0.00 58 998.9
20260507040002 42 0 0.0 0.0 0.00 0.00 0.00 56 998.9
20260507035002 42 0 0.0 0.0 0.00 0.00 0.00 54 999.1
20260507034002 43 0 0.0 0.0 0.00 0.00 0.00 51 999.2
20260507033003 43 45 0.0 1.0 0.00 0.00 0.00 50 999.3
20260507031002 43 0 0.0 0.0 0.00 0.00 0.00 46 999.6
20260507030002 44 0 0.0 0.0 0.00 0.00 0.00 47 999.7
20260507023003 44 0 0.0 0.0 0.00 0.00 0.00 45 1000.0
20260507022002 45 0 0.0 0.0 0.00 0.00 0.00 44 1000.0
20260507021002 45 0 0.0 0.0 0.00 0.00 0.00 42 1000.0
20260507020002 46 0 0.0 0.0 0.00 0.00 0.00 40 999.9
20260507015002 46 0 0.0 0.0 0.00 0.00 0.00 38 999.8
20260507013002 47 45 0.0 1.0 0.00 0.00 0.00 35 999.5
20260507012003 47 45 0.0 2.0 0.00 0.00 0.00 34 999.4
20260507011003 48 45 1.0 2.0 0.00 0.00 0.00 32 1000.3
20260507010003 48 45 2.0 3.0 0.00 0.00 0.00 29 1000.3
20260507004002 49 46 4.0 8.0 0.00 0.00 0.00 27 1002.6
20260507003003 50 46 5.0 8.0 0.00 0.00 0.00 25 1002.8
20260507002003 50 46 6.0 8.0 0.00 0.00 0.00 26 1003.1
20260507001002 51 45 5.0 7.0 0.00 0.00 0.00 26 1003.1
20260506235002 51 45 4.0 6.0 0.00 0.00 0.00 26 1003.5
20260506234002 51 45 5.0 9.0 0.00 0.00 0.00 26 1003.8
20260506232003 52 45 4.0 10.0 0.00 0.00 0.00 26 1004.1
20260506231002 52 45 5.0 7.0 0.00 0.00 0.00 25 1003.9
20260506230003 52 45 4.0 5.0 0.00 0.00 0.00 26 1004.0
20260506225003 53 45 3.0 5.0 0.00 0.00 0.00 27 1004.1
20260506224003 53 45 3.0 7.0 0.00 0.00 0.00 26 1004.2
20260506222003 53 45 4.0 7.0 0.00 0.00 0.00 25 1004.2
20260506220002 53 45 5.0 9.0 0.00 0.00 0.00 24 1004.4
20260506215003 53 45 3.0 5.0 0.00 0.00 0.00 24 1004.7
20260506214002 54 45 4.0 6.0 0.00 0.00 0.00 24 1004.8
20260506213003 54 45 2.0 4.0 0.00 0.00 0.00 24 1005.0
20260506210002 55 45 4.0 6.0 0.00 0.00 0.00 24 1005.1
20260506205003 56 45 4.0 6.0 0.00 0.00 0.00 25 1005.2
20260506204003 56 46 4.0 8.0 0.00 0.00 0.00 25 1005.2
20260506203003 56 46 6.0 8.0 0.00 0.00 0.00 24 1005.4
20260506202002 56 260 5.0 8.0 0.00 0.00 0.00 24 1005.3
20260506201003 57 313 4.0 5.0 0.00 0.00 0.00 26 1005.1
20260506200003 58 346 4.0 8.0 0.00 0.00 0.00 23 1005.0
20260506195003 59 324 3.0 6.0 0.00 0.00 0.00 25 1004.7
20260506194003 59 299 5.0 11.0 0.00 0.00 0.00 24 1004.7
20260506193002 59 261 5.0 11.0 0.00 0.00 0.00 24 1004.4
20260506192004 57 243 5.0 9.0 0.00 0.00 0.00 24 1004.1
20260506191003 58 225 6.0 9.0 0.00 0.00 0.00 26 1004.0
20260506190004 57 225 5.0 8.0 0.00 0.00 0.00 26 1004.0
20260506185003 56 225 4.0 6.0 0.00 0.00 0.00 27 1004.1
20260506184002 55 225 5.0 8.0 0.00 0.00 0.00 25 1004.0
20260506183003 57 225 5.0 7.0 0.00 0.00 0.00 26 1003.7
20260506182003 56 225 4.0 6.0 0.00 0.00 0.00 26 1003.5
20260506181002 57 225 6.0 10.0 0.00 0.00 0.00 24 1003.4
20260506180004 56 225 6.0 12.0 0.00 0.00 0.00 23 1003.3
20260506175002 58 225 6.0 11.0 0.00 0.00 0.00 23 1003.3
20260506174002 56 225 4.0 8.0 0.00 0.00 0.00 27 1002.9
20260506173003 54 225 5.0 7.0 0.00 0.00 0.00 23 1002.8
20260506172003 54 225 4.0 7.0 0.00 0.00 0.00 25 1002.8
20260506171002 54 225 5.0 8.0 0.00 0.00 0.00 26 1002.5
20260506170003 53 225 5.0 8.0 0.00 0.00 0.00 29 1002.2
20260506165002 53 225 5.0 8.0 0.00 0.00 0.00 29 1001.9
20260506164003 52 225 5.0 8.0 0.00 0.00 0.00 27 1001.8
20260506163003 52 225 4.0 8.0 0.00 0.00 0.00 29 1001.7
20260506162003 51 225 5.0 8.0 0.00 0.00 0.00 28 1001.5
20260506161003 51 225 4.0 12.0 0.00 0.01 0.00 28 1001.4
20260506160003 52 225 7.0 12.0 0.00 0.01 0.00 27 1000.9
20260506155003 52 225 5.0 8.0 0.00 0.01 0.00 28 1000.7
20260506154003 51 225 6.0 8.0 0.00 0.01 0.00 28 1000.4
20260506151003 52 225 6.0 11.0 0.00 0.01 0.00 28 999.6
20260506150003 52 225 5.0 11.0 0.00 0.01 0.00 29 999.1
20260506145003 52 225 6.0 12.0 0.00 0.01 0.00 29 998.8
20260506144003 52 225 5.0 8.0 0.00 0.01 0.00 31 998.6
20260506143003 51 225 8.0 15.0 0.00 0.01 0.00 30 998.5
20260506142002 51 225 6.0 10.0 0.00 0.01 0.00 32 998.5
20260506141003 51 225 6.0 8.0 0.00 0.01 0.00 32 998.2
20260506140003 50 225 4.0 9.0 0.00 0.01 0.00 38 998.1
20260506135003 50 225 5.0 8.0 0.00 0.01 0.00 35 998.2
20260506134003 50 225 4.0 7.0 0.00 0.01 0.00 38 998.2
20260506133003 49 225 5.0 6.0 0.00 0.01 0.00 39 998.1
20260506132003 48 225 4.0 7.0 0.00 0.01 0.00 38 998.2
20260506130003 49 1 4.0 7.0 0.00 0.01 0.00 40 998.1
20260506125003 49 1 5.0 12.0 0.00 0.01 0.00 41 998.2
20260506124003 47 1 6.0 8.0 0.00 0.01 0.00 43 998.1
20260506123004 45 358 4.0 8.0 0.00 0.01 0.00 47 998.2
20260506122004 43 337 4.0 6.0 0.00 0.01 0.00 50 998.3
20260506121003 42 1 2.0 6.0 0.00 0.01 0.00 53 998.3
20260506120003 41 1 3.0 4.0 0.00 0.01 0.00 54 998.4
20260506114003 40 1 1.0 2.0 0.00 0.01 0.00 57 998.7
20260506113003 40 1 2.0 3.0 0.00 0.01 0.00 58 998.5
20260506112003 40 1 1.0 2.0 0.00 0.01 0.00 57 998.4
20260506110004 39 1 1.0 2.0 0.00 0.01 0.00 56 998.6
20260506105003 39 1 0.0 1.0 0.00 0.01 0.00 53 998.7
20260506104003 40 1 0.0 2.0 0.00 0.01 0.00 52 998.4
20260506103004 41 1 0.0 2.0 0.00 0.01 0.00 51 998.6
20260506102004 42 1 1.0 2.0 0.00 0.01 0.00 50 998.7
20260506101003 43 1 2.0 2.0 0.00 0.01 0.00 50 998.7
20260506100004 43 1 2.0 4.0 0.00 0.01 0.00 49 998.6
20260506095003 43 1 3.0 6.0 0.00 0.01 0.00 49 998.9
20260506093004 43 1 2.0 3.0 0.00 0.01 0.00 49 998.0
20260506092004 43 1 2.0 4.0 0.00 0.01 0.00 49 997.2
20260506090003 44 1 2.0 4.0 0.00 0.01 0.00 49 995.5
20260506085003 44 1 2.0 4.0 0.00 0.01 0.00 49 995.8
20260506082003 44 314 3.0 4.0 0.00 0.01 0.00 48 995.4
20260506081004 44 314 3.0 4.0 0.00 0.01 0.00 48 995.7
20260506073003 45 314 2.0 4.0 0.00 0.01 0.00 46 995.6
20260506072002 45 314 2.0 4.0 0.00 0.01 0.00 46 995.6
20260506071002 45 314 2.0 4.0 0.00 0.01 0.00 45 996.0
20260506062002 46 314 3.0 4.0 0.00 0.01 0.00 43 995.9
20260506061002 46 314 4.0 4.0 0.00 0.01 0.00 43 995.9
20260506051003 46 314 2.0 4.0 0.00 0.02 0.00 43 996.4
20260506045004 46 314 2.0 4.0 0.00 0.04 0.00 42 996.6